TimeCDT,TemperatureF,Dew PointF,Humidity,Sea Level PressureIn,VisibilityMPH,Wind Direction,Wind SpeedMPH,Gust SpeedMPH,PrecipitationIn,Events,Conditions,WindDirDegrees,DateUTC
12:54 AM,57.0,51.1,81,30.05,10.0,Calm,Calm,-,N/A,,Clear,0,2013-09-03 05:54:00
1:54 AM,54.0,50.0,86,30.04,10.0,Calm,Calm,-,N/A,,Clear,0,2013-09-03 06:54:00
2:54 AM,53.1,48.9,86,30.05,10.0,Calm,Calm,-,N/A,,Clear,0,2013-09-03 07:54:00
3:54 AM,52.0,50.0,93,30.06,10.0,North,5.8,-,N/A,,Clear,360,2013-09-03 08:54:00
4:54 AM,55.0,50.0,83,30.06,10.0,Calm,Calm,-,N/A,,Clear,0,2013-09-03 09:54:00
5:54 AM,53.1,48.9,86,30.07,10.0,North,4.6,-,N/A,,Clear,350,2013-09-03 10:54:00
6:54 AM,54.0,48.9,83,30.08,10.0,Calm,Calm,-,N/A,,Clear,0,2013-09-03 11:54:00
7:54 AM,57.0,51.1,81,30.10,10.0,Calm,Calm,-,N/A,,Clear,0,2013-09-03 12:54:00
8:54 AM,63.0,55.0,75,30.10,10.0,South,3.5,-,N/A,,Clear,170,2013-09-03 13:54:00
9:54 AM,72.0,57.0,59,30.10,10.0,SW,4.6,-,N/A,,Clear,220,2013-09-03 14:54:00
10:54 AM,77.0,57.9,52,30.08,10.0,Variable,5.8,-,N/A,,Clear,0,2013-09-03 15:54:00
11:54 AM,80.1,55.9,43,30.08,10.0,SW,9.2,-,N/A,,Clear,220,2013-09-03 16:54:00
12:54 PM,82.0,57.0,42,30.06,10.0,South,5.8,-,N/A,,Clear,180,2013-09-03 17:54:00
1:54 PM,84.0,57.9,41,30.05,10.0,South,11.5,17.3,N/A,,Clear,190,2013-09-03 18:54:00
2:54 PM,84.9,59.0,41,30.04,10.0,South,8.1,-,N/A,,Clear,170,2013-09-03 19:54:00
3:54 PM,86.0,59.0,40,30.02,10.0,South,9.2,-,N/A,,Clear,190,2013-09-03 20:54:00
4:54 PM,86.0,59.0,40,30.01,10.0,South,9.2,-,N/A,,Clear,180,2013-09-03 21:54:00
5:54 PM,84.9,57.9,40,30.02,10.0,South,9.2,-,N/A,,Clear,180,2013-09-03 22:54:00
6:54 PM,82.0,57.9,44,30.02,10.0,South,10.4,-,N/A,,Clear,170,2013-09-03 23:54:00
7:54 PM,78.1,59.0,52,30.01,10.0,South,6.9,-,N/A,,Clear,170,2013-09-04 00:54:00
8:54 PM,73.9,59.0,59,30.02,10.0,South,5.8,-,N/A,,Clear,180,2013-09-04 01:54:00
9:54 PM,70.0,60.1,71,30.02,10.0,South,6.9,-,N/A,,Clear,180,2013-09-04 02:54:00
10:54 PM,69.1,60.1,73,30.03,10.0,South,4.6,-,N/A,,Clear,180,2013-09-04 03:54:00
11:54 PM,66.0,59.0,78,30.03,10.0,SSE,5.8,-,N/A,,Clear,160,2013-09-04 04:54:00